STARLINK-30821, 58181

Orbit data source: Space-Track

STARLINK-30821, 58181 is a payload satellite owned by SpaceX/Seattle (US) in LEO that was launched on Mon, 30 Oct 2023 UTC via an FALCON 9 launch vehicle from the Air Force Eastern Test Range (AFETR). Payload-class satellites include a variety of spacecraft equipped with specific instruments for various scientific and technological missions. These include communications satellites like Starlink; space stations such as the ISS; scientific satellites like the Hubble; Earth observation satellites from companies like Planet Labs, Umbra, and HawkEye 360; GPS; miniature CubeSats for education and research; and military/defense satellites.

Loading next visibility...
Identifier
58181, 2023-167G
Orbit
LEO
Country
Flag of USUS
Related business
Manufacturer
SpaceX/Seattle
Mission
Operational Commercial Communications
Bus & Motor
STARLINK V2M, Unknown motor
Mass
730 kg wet, ~700 kg dry
Launch date (UTC)
2023-10-30 (3 years ago)
Launch vehicle
FALCON 9
Launch site
Air Force Eastern Test Range (AFETR)
Object type
Payload
Rocket body
Debris
Shape & HBR
Box + 2 Pan, 17.7 m
Radar Cross Section
33.884 m², Large (>1 m²)

Expand to show TLE details & history
Last TLE update: 3 days ago

TLE from 3 days ago
0 STARLINK-30821
1 58181U 23167G   26170.60734672  .00001939  00000-0  79950-4 0  9999
2 58181  43.0028 287.6892 0001172 271.9131  88.1587 15.27582609146563
Epoch: 2026-06-19T14:34Z
TLE epoch observation values (Epoch: 2026-06-19T14:34:34.756Z)
Latitude
0.00001°
Longitude
161.2105°
Altitude
482.791 km
Speed
7.626 km/s
True Right ascension
19h 10m 45s
True Declination
0° 00' 00"
Sunlit
Object was in full shadow at epoch
Visualization orbit readout
Latitude
Unknown
Longitude
Unknown
Altitude
Unknown
Speed
Unknown
Apparent Right ascension
Unknown
Apparent Declination
Unknown
Sunlit
N/A
Visualization observer readout
Local Sidereal Time
21:27:08
Azimuth
Unknown
Elevation
Unknown
Doppler factor
Unknown
Orbital elements
Apogee altitude
485.79 km
Perigee altitude
484.182 km
Semi-major axis
6,863.123 km
Eccentricity
0.00012
Inclination
43.0028°
RAAN
287.6892°
Arg. of periapsis
271.9131°
True anomaly
88.17212°
Mean anomaly
88.1587°
Eccentric anomaly
88.16541°
Mean motion
3.81734 °/min
Orbital period
94.31 mins
BSTAR
0.00007995
Loading maneuver chart data...
Computing Atmospheric mass density...
Loading historical data...
Loading historical data...
Loading historical data...
Loading historical data...
Loading historical data...
Loading historical data...
Loading historical data...

Documentation

Showing up to 5 results
|